www.pogodaiklimat.ru

Погода и климат >> Архив погоды >> Канада >> Cambridge Bay Arpt


ПОГОДА в Cambridge Bay Arpt

  • Прогноз погоды в Cambridge Bay Arpt
  • Монитор погоды в Cambridge Bay Arpt
  • Климат города

АРХИВ ПОГОДЫ в Cambridge Bay Arpt

Время (UTC), дата Ветер
(напр.,м/с)
 
Видим.   Явления Облачность Т
(С)
Тd
(С)
f
(%)
Тe
(С)
Тes
(С)
Комфортность P
(гПа)
Po
(гПа)
Тmin
(С)
Tmax
(С)
R
(мм)
S
(см)
00 19.03 З 6 16 км ледяные иглы {снег} ясно -25.6 -29.3 71 -38 -38 опасность
обморожения
1009.2 1004.9 -26.0 -21.9 0.2 28
03 19.03 СЗ 5 16 км ясно -31.5 -35.6 67 -44 -44 опасность
обморожения
1011.5 1007.2
06 19.03 СЗ 5 19 км ледяные иглы {снег} 3/3 600 м
[Sc]
-34.4 -38.9 64 -48 -48 опасность
обморожения
1014.0 1009.7 -34.9 -21.9 0.0 81
09 19.03 З 3 19 км 1/1 600 м
[]
-36.6 -40.7 66 -48 -48 опасность
обморожения
1016.6 1012.2
12 19.03 СЗ 3 16 км ледяные иглы {снег} 1/1 300 м
[Sc]
-37.1 -41.3 65 -48 -48 опасность
обморожения
1018.5 1014.1 -37.5 -21.9 0.0 28
15 19.03 С 4 19 км 1/1 300 м
[]
-36.2 -40.4 65 -49 -49 опасность
обморожения
1020.1 1015.7
18 19.03 СЗ 4 19 км ледяные иглы {снег} ясно -33.8 -38.3 64 -46 -44 опасность
обморожения
1022.8 1018.4 -37.9 -33.7 0.0 28
21 19.03 З 6 19 км ясно -31.8 -36.4 64 -46 -45 опасность
обморожения
1024.2 1019.8
00 20.03 СЗ 8 19 км ледяные иглы {снег} ясно -31.5 -35.6 67 -47 -47 опасность
обморожения
1025.2 1020.8 -37.9 -31.1 0.0 28
03 20.03 З 4 19 км ясно -33.3 -37.3 67 -45 -45 опасность
обморожения
1026.6 1022.2
06 20.03 СЗ 7 19 км ледяные иглы {снег} 1/1 600 м
[Sc]
-33.7 -37.9 66 -50 -50 опасность
обморожения
1026.3 1021.9 -37.9 -31.1 0.0 1
09 20.03 З 6 19 км 1/1 600 м
[]
-35.5 -39.3 68 -50 -50 опасность
обморожения
1026.4 1022.0
12 20.03 З 5 19 км ледяные иглы {снег} 1/1 600 м
[Sc]
-35.0 -39.0 67 -49 -49 опасность
обморожения
1026.7 1022.3 -35.8 -31.1 0.0 28
15 20.03 З 7 19 км 1/1 600 м
[]
-34.3 -38.5 66 -50 -50 опасность
обморожения
1026.4 1022.0
18 20.03 З 6 19 км ледяные иглы {снег} 1/1 1500 м
[Sc]
-31.2 -35.8 64 -45 -44 опасность
обморожения
1026.8 1022.4 -35.8 -31.2 0.0 28
21 20.03 З 6 19 км 1/1 1500 м
[]
-28.6 -33.0 66 -42 -41 опасность
обморожения
1026.6 1022.2
00 21.03 З 6 19 км ледяные иглы {снег} 3/1 600 м
[Sc Ac trans]
-27.6 -31.4 70 -41 -41 опасность
обморожения
1025.7 1021.3 -35.8 -27.4 0.0 28
03 21.03 З 5 19 км 4/4 600 м
[]
-30.6 -34.1 71 -43 -43 опасность
обморожения
1024.6 1020.2
06 21.03 ЮЗ 2 19 км ледяные иглы {снег} 4/1 600 м
[Sc Ac trans]
-31.4 -34.9 71 -38 -38 опасность
обморожения
1023.0 1018.6 -35.8 -27.4 0.0 161
09 21.03 ЮЗ 2 19 км 3/3 600 м
[]
-30.6 -34.0 72 -37 -37 опасность
обморожения
1021.4 1017.0
12 21.03 ЮЗ 2 19 км ледяные иглы {снег} 1/1 600 м
[Sc]
-31.8 -35.0 73 -40 -40 опасность
обморожения
1019.9 1015.5 -32.6 -27.4 0.0 28
15 21.03 ЮЗ 4 19 км 1/1 600 м
[]
-32.6 -36.1 71 -45 -44 опасность
обморожения
1018.1 1013.7
18 21.03 ЮЗ 3 19 км ледяные иглы {снег} 1/1 600 м
[Sc]
-29.6 -33.3 70 -39 -37 опасность
обморожения
1017.2 1012.8 -34.3 -28.9 0.0 28
21 21.03 З 6 19 км 3/3 600 м
[]
-25.9 -29.9 69 -39 -38 опасность
обморожения
1016.3 1012.0
00 22.03 З 4 19 км ледяные иглы {снег} 3/3 1500 м
[Sc]
-27.3 -30.8 72 -37 -37 опасность
обморожения
1016.9 1012.5 -34.3 -25.8 0.0 28
03 22.03 З 5 19 км 3/3 1500 м
[]
-29.4 -32.8 72 -41 -41 опасность
обморожения
1017.0 1012.6
06 22.03 З 3 19 км ледяные иглы {снег} 3/1 1500 м
[Sc Ac trans]
-31.1 -34.5 72 -41 -41 опасность
обморожения
1017.0 1012.6 -34.3 -25.8 0.0 20
09 22.03 З 6 19 км 3/3 1500 м
[]
-31.7 -35.2 71 -46 -46 опасность
обморожения
1016.4 1012.1
12 22.03 З 6 16 км ледяные иглы {снег} 8/1 600 м
[Sc Ac As]
-28.8 -32.1 73 -42 -42 опасность
обморожения
1015.7 1011.4 -32.2 -25.8 0.0 28
15 22.03 З 9 4800 м 5/5 600 м
[]
-28.1 -31.4 73 -43 -43 опасность
обморожения
1014.4 1010.1
18 22.03 З 7 4800 м ледяные иглы {снег} 4/1 600 м
[Sc Ac trans]
-25.1 -28.6 72 -38 -37 опасность
обморожения
1014.1 1009.8 -32.2 -25.1 0.0 28
21 22.03 СЗ 6 19 км ясно -25.1 -29.1 69 -38 -37 опасность
обморожения
1014.3 1010.0
00 23.03 СЗ 7 19 км ледяные иглы {снег} 1/1 1000 м
[Sc]
-27.7 -31.6 69 -41 -41 опасность
обморожения
1015.4 1011.1 -32.2 -24.2 0.0 28
03 23.03 СЗ 6 19 км 1/1 1000 м
[]
-31.0 -34.7 70 -45 -45 опасность
обморожения
1017.4 1013.0
06 23.03 СЗ 7 19 км ледяные иглы {снег} 3/3 1000 м
[Sc]
-33.1 -36.8 69 -48 -48 опасность
обморожения
1019.3 1014.9 -33.1 -24.2 0.0 161
09 23.03 З 6 19 км 3/3 1000 м
[]
-34.1 -38.1 67 -48 -48 опасность
обморожения
1020.2 1015.8
12 23.03 19 км ледяные иглы {снег} н/о -34.9 -38.7 68 -49 -49 опасность
обморожения
1021.0 1016.6 -35.4 -24.2 0.0 28
15 23.03 З 7 16 км 3/3 600 м
[]
-32.6 -36.5 68 -48 -48 опасность
обморожения
1021.4 1017.0
18 23.03 З 5 19 км ледяные иглы {снег} ясно -29.0 -33.0 68 -41 -40 опасность
обморожения
1021.8 1017.4 -35.4 -29.0 0.0 30
21 23.03 З 8 19 км 1/0
[]
-25.6 -29.3 71 -39 -39 опасность
обморожения
1022.1 1017.7
00 24.03 З 5 19 км ледяные иглы {снег} 6/6 1000 м
[Sc]
-26.1 -29.3 74 -38 -38 опасность
обморожения
1022.2 1017.8 -35.4 -25.4 0.0 30
03 24.03 З 7 19 км 3/3 1500 м
[]
-27.5 -30.7 74 -41 -41 опасность
обморожения
1022.3 1017.9
06 24.03 З 6 16 км ледяные иглы {снег} 3/3 300 м
[Sc]
-28.1 -31.1 75 -41 -41 опасность
обморожения
1022.6 1018.2 -35.4 -25.4 0.0 161
09 24.03 СЗ 3 19 км 4/4 300 м
[]
-28.1 -31.1 75 -37 -37 опасность
обморожения
1022.9 1018.6
12 24.03 З 2 16 км ледяные иглы {снег} 5/5 600 м
[Sc]
-31.0 -34.4 72 -39 -39 опасность
обморожения
1023.4 1019.0 -31.0 -25.4 0.0 30
15 24.03 штиль 0 19 км 3/3 600 м
[]
-30.8 -34.3 71 -31 -30 опасность
обморожения
1023.1 1018.7
18 24.03 С 1 24 км ледяные иглы {снег} 1/1 600 м
[Sc]
-28.0 -31.3 73 -29 -25 1022.5 1018.1 -32.1 -25.7 0.0 30
21 24.03 С 1 24 км ясно -25.4 -28.6 74 -26 -23 1021.9 1017.6
00 25.03 ЮВ 2 24 км {снег} 4/0
[Ci fib]
-25.7 -28.8 75 -33 -32 опасность
обморожения
1020.9 1016.5 -32.1 -24.9 0.0 30
03 25.03 ЮВ 4 24 км 3/0
[]
-26.0 -28.9 76 -36 -36 опасность
обморожения
1019.2 1014.9
06 25.03 В 4 19 км 3/0
[Ci fib]
-26.2 -29.3 75 -36 -36 опасность
обморожения
1017.6 1013.3 -32.1 -24.9 8
09 25.03 В 4 19 км 3/0
[]
-24.6 -27.6 76 -34 -34 опасность
обморожения
1015.5 1011.2
12 25.03 В 3 24 км 9/0
[Ac As]
-24.5 -27.7 75 -32 -32 опасность
обморожения
1013.6 1009.3 -26.8 -24.9 30
15 25.03 В 5 24 км 8/0
[]
-23.3 -27.2 70 -34 -33 опасность
обморожения
1012.2 1007.9
18 25.03 ЮВ 4 24 км 9/0
[Ac As]
-22.5 -26.6 69 -32 -31 опасность
обморожения
1011.4 1007.1 -28.0 -22.5
21 25.03 ЮВ 2 12 км 9/9 600 м
[]
-21.5 -25.3 71 -26 -26 1011.6 1007.3

 

Местоположение метеостанции Cambridge Bay Arpt (Канада): широта 69.10 долгота -105.10 высота над уровнем моря 27 м.

В архиве по умолчанию представлена погода в Cambridge Bay Arpt за последнюю неделю. Архивные данные за месяц целиком и за предыдущие месяцы, начиная с января 2011 года, Вы можете получить, выбрав интересующий диапазон дат из раскрывающегося списка и нажав кнопку "Ввод!".

Внимание! Время в таблицах - всемирное. Для получения местного времени необходимо прибавить поправку, которая в Cambridge Bay Arpt равна -7 ч.

Смотрите также архив погоды в соседних городах и на ближайших метеорологических станциях:

Погода в Cape Peel West (Канада) (108 км)
Погода в Ellice River AWS (Канада) (158 км)
Погода в Hat Island (Канада) (223 км)
Погода в Gjoa Haven Climate (Канада) (374 км)
Погода в Kugluktuk (Канада) (432 км)
Погода в Kugluktuk Airport (Канада) (432 км)
Погода в Lupin (Канада) (452 км)
Погода в Lupin (maps) (Канада) (452 км)
Погода в Spence bay (Канада) (454 км)
Погода в Robertson Lake (Канада) (460 км)

Пояснения к столбцам:

Ветер - указаны скорость ветра в м/с - средняя за 10 мин, порывы в срок и между сроками (в фигурных скобках) и направление, откуда дует ветер: С - северный, СВ - северо-восточный, В - восточный, ЮВ - юго-восточный, Ю - южный, ЮЗ - юго-западный, З - западный, СЗ - северо-западный.
Видимость - горизонтальная дальность видимости в метрах или километрах. При видимости от 1 до 10 км при отсутствии осадков обычно наблюдается дымка, при ухудшении видимости до 1 км и менее - туман. В сухую погоду видимость может ухудшаться дымом, пылью или мглою.
Явления - указаны атмосферные явления, наблюдавшиеся в срок или в последний час перед сроком; фигурными скобками обозначены явления, наблюдавшиеся между сроками (за 1-3 часа до срока); квадратными скобками обозначены град или гололедные отложения с указанием их диаметра в мм.
Облачность - указаны через наклонную черту общая и нижняя облачность в баллах и высота нижней границы облаков в метрах; квадратными скобками обозначены формы облаков: Ci - перистые, Cs - перисто-слоистые, Cc - перисто-кучевые, Ac - высококучевые, As - высокослоистые, Sc - слоисто-кучевые, Ns - слоисто-дождевые, Cu - кучевые, Cb - кучево-дождевые. Подробнее классификацию облаков см. в Атласе облаков (PDF).
T - Температура воздуха - температура, измеренная на высоте 2 м над землей.
Td - Температура точки росы - температура, при понижении до которой содержащийся в воздухе водяной пар достигнет насыщения.
f - Относительная влажность воздуха - влажноcть воздуха, измеренная на высоте 2 м над землей.
Te - Эффективная температура - температура, которую ощущает одетый по сезону человек в тени. Характеристика душности погоды. При расчете учитывается влияние влажности воздуха и скорости ветра на теплоощущения человека.
Tes - Эффективная температура на солнце - температура, которую ощущает человек, с поправкой на солнечный нагрев. Характеристика знойности погоды. Зависит от высоты солнца над горизонтом, облачности и скорости ветра. Ночью, в пасмурную погоду, а также при ветре 12 м/с и более поправка равна нулю.
P - Атмосферное давление - приведенное к уровню моря атмосферное давление.
Po - Атмосферное давление - измеренное на уровне метеостанции атмосферное давление.
Tmin - Минимальная температура - минимум температуры воздуха на высоте 2 м над землей.
Tmax - Максимальная температура - максимум температуры воздуха на высоте 2 м над землей.
R - Количество осадков - Количество выпавших осадков, мм. При наведении курсора мыши на число - период времени, за который выпало указанное количество осадков.
S - Снежный покров - Высота снежного покрова, см. При наведении курсора мыши на число - состояние снежного покрова и степень покрытия местности в баллах.